TimeEST,TemperatureF,Dew PointF,Humidity,Sea Level PressureIn,VisibilityMPH,Wind Direction,Wind SpeedMPH,Gust SpeedMPH,PrecipitationIn,Events,Conditions,WindDirDegrees,DateUTC
12:13 AM,28.9,20.3,70,30.06,10.0,East,5.8,-,N/A,,Clear,80,2013-02-26 05:13:00
12:33 AM,28.2,20.3,72,30.06,10.0,East,6.9,-,N/A,,Clear,90,2013-02-26 05:33:00
12:54 AM,27.9,20.7,74,30.04,10.0,ENE,5.8,-,N/A,,Clear,70,2013-02-26 05:54:00
1:13 AM,27.7,20.7,75,30.04,10.0,East,6.9,-,N/A,,Clear,90,2013-02-26 06:13:00
1:33 AM,27.9,20.5,74,30.04,10.0,ENE,5.8,-,N/A,,Clear,70,2013-02-26 06:33:00
1:54 AM,27.9,20.5,74,30.03,10.0,East,6.9,-,N/A,,Clear,80,2013-02-26 06:54:00
2:13 AM,28.2,20.3,72,30.03,10.0,East,10.4,-,N/A,,Clear,90,2013-02-26 07:13:00
2:33 AM,28.2,20.1,72,30.01,10.0,East,8.1,-,N/A,,Clear,80,2013-02-26 07:33:00
2:54 AM,28.4,20.1,71,30.00,10.0,East,10.4,-,N/A,,Clear,90,2013-02-26 07:54:00
3:13 AM,28.4,20.1,71,30.00,10.0,East,9.2,-,N/A,,Clear,80,2013-02-26 08:13:00
3:34 AM,28.4,20.1,71,29.99,10.0,East,5.8,-,N/A,,Clear,90,2013-02-26 08:34:00
3:54 AM,28.4,20.3,72,29.97,10.0,East,9.2,-,N/A,,Clear,80,2013-02-26 08:54:00
4:13 AM,28.8,20.7,72,29.97,10.0,ENE,6.9,-,N/A,,Clear,70,2013-02-26 09:13:00
4:34 AM,28.8,20.5,71,29.94,10.0,ENE,8.1,-,N/A,,Clear,60,2013-02-26 09:34:00
4:54 AM,28.9,20.7,71,29.92,10.0,ENE,11.5,18.4,N/A,,Clear,60,2013-02-26 09:54:00
5:13 AM,29.1,20.8,71,29.90,10.0,ENE,9.2,-,N/A,,Clear,60,2013-02-26 10:13:00
5:34 AM,29.5,21.0,71,29.91,10.0,ENE,8.1,-,N/A,,Clear,70,2013-02-26 10:34:00
5:53 AM,29.5,20.8,70,29.91,10.0,ENE,9.2,16.1,N/A,,Clear,60,2013-02-26 10:53:00
6:14 AM,29.5,21.0,71,29.90,10.0,ENE,6.9,-,N/A,,Clear,60,2013-02-26 11:14:00
6:33 AM,29.7,21.0,70,29.91,10.0,ENE,8.1,-,N/A,,Clear,70,2013-02-26 11:33:00
6:53 AM,29.7,21.0,70,29.89,10.0,ENE,10.4,-,N/A,,Clear,70,2013-02-26 11:53:00
7:14 AM,29.8,21.0,70,29.88,10.0,NE,9.2,-,N/A,,Clear,50,2013-02-26 12:14:00
7:33 AM,30.0,21.0,69,29.88,10.0,ENE,9.2,17.3,N/A,,Clear,70,2013-02-26 12:33:00
7:53 AM,30.4,21.2,69,29.88,10.0,ENE,10.4,17.3,N/A,,Clear,60,2013-02-26 12:53:00
8:14 AM,30.7,21.4,68,29.90,10.0,ENE,11.5,18.4,N/A,,Clear,70,2013-02-26 13:14:00
8:33 AM,30.9,21.6,68,29.86,10.0,ENE,11.5,19.6,N/A,,Clear,60,2013-02-26 13:33:00
8:53 AM,31.5,21.6,67,29.85,10.0,ENE,13.8,20.7,N/A,,Clear,60,2013-02-26 13:53:00
9:14 AM,31.6,21.7,67,29.83,10.0,ENE,15.0,-,N/A,,Clear,60,2013-02-26 14:14:00
9:33 AM,31.8,21.7,66,29.82,10.0,East,13.8,20.7,N/A,,Clear,80,2013-02-26 14:33:00
9:53 AM,32.7,22.3,65,29.81,10.0,East,13.8,20.7,N/A,,Clear,80,2013-02-26 14:53:00
10:14 AM,33.3,22.3,64,29.78,10.0,ENE,15.0,23.0,N/A,,Clear,70,2013-02-26 15:14:00
10:33 AM,34.3,22.6,62,29.76,10.0,East,16.1,24.2,N/A,,Clear,80,2013-02-26 15:33:00
10:53 AM,34.7,22.6,61,29.75,10.0,ENE,15.0,24.2,N/A,,Scattered Clouds,70,2013-02-26 15:53:00
11:14 AM,34.3,22.3,61,29.73,10.0,ENE,19.6,26.5,N/A,,Scattered Clouds,70,2013-02-26 16:14:00
11:33 AM,34.3,22.8,63,29.73,10.0,East,15.0,21.9,N/A,,Scattered Clouds,80,2013-02-26 16:33:00
11:53 AM,34.3,23.2,64,29.72,10.0,ENE,11.5,23.0,N/A,,Scattered Clouds,70,2013-02-26 16:53:00
12:14 PM,34.2,23.9,66,29.69,10.0,ENE,13.8,28.8,N/A,Rain,Light Rain,60,2013-02-26 17:14:00
12:33 PM,33.3,25.9,74,29.68,5.0,ENE,15.0,24.2,N/A,,Overcast,70,2013-02-26 17:33:00
12:53 PM,32.7,27.1,80,29.66,5.0,ENE,11.5,18.4,N/A,,Overcast,70,2013-02-26 17:53:00
1:14 PM,32.5,27.9,83,29.64,5.0,ENE,9.2,18.4,N/A,,Overcast,60,2013-02-26 18:14:00
1:33 PM,32.5,28.0,83,29.62,5.0,ENE,12.7,18.4,N/A,,Overcast,70,2013-02-26 18:33:00
1:54 PM,32.7,28.6,85,29.60,4.0,ENE,8.1,17.3,N/A,,Overcast,70,2013-02-26 18:54:00
2:14 PM,32.5,28.9,87,29.60,4.0,ENE,9.2,-,N/A,,Overcast,70,2013-02-26 19:14:00
2:33 PM,32.2,29.1,88,29.60,2.0,East,5.8,-,N/A,,Overcast,80,2013-02-26 19:33:00
2:54 PM,32.5,29.7,89,29.59,3.0,ENE,8.1,-,N/A,,Overcast,60,2013-02-26 19:54:00
3:13 PM,32.5,29.7,89,29.58,4.0,ENE,5.8,-,N/A,,Overcast,70,2013-02-26 20:13:00
3:33 PM,32.5,29.7,89,29.57,5.0,ENE,6.9,-,N/A,Snow,Light Snow,70,2013-02-26 20:33:00
3:54 PM,32.5,29.7,89,29.57,5.0,ENE,6.9,-,N/A,Snow,Light Snow,70,2013-02-26 20:54:00
4:13 PM,32.5,29.8,90,29.57,4.0,ENE,5.8,-,N/A,Snow,Light Snow,70,2013-02-26 21:13:00
4:33 PM,32.5,30.0,90,29.57,1.0,ENE,5.8,-,N/A,Snow,Light Snow,70,2013-02-26 21:33:00
4:54 PM,32.5,30.2,91,29.56,1.0,ENE,6.9,-,N/A,Snow,Light Snow,70,2013-02-26 21:54:00
5:13 PM,32.5,30.4,92,29.55,0.2,ENE,5.8,-,N/A,Snow,Snow,70,2013-02-26 22:13:00
5:34 PM,32.5,30.6,92,29.54,0.5,ENE,5.8,-,N/A,Snow,Light Snow,60,2013-02-26 22:34:00
5:54 PM,32.5,30.6,92,29.54,0.8,ENE,4.6,-,N/A,Snow,Light Snow,70,2013-02-26 22:54:00
6:13 PM,32.5,30.6,92,29.54,0.8,ENE,5.8,-,N/A,Snow,Light Snow,70,2013-02-26 23:13:00
6:33 PM,32.7,30.7,92,29.53,2.0,ENE,4.6,-,N/A,Snow,Light Snow,60,2013-02-26 23:33:00
6:54 PM,32.7,30.7,92,29.54,4.0,ENE,4.6,-,N/A,Snow,Light Snow,60,2013-02-26 23:54:00
7:13 PM,33.1,30.9,92,29.54,2.0,ENE,4.6,-,N/A,Snow,Light Snow,60,2013-02-27 00:13:00
7:33 PM,32.7,30.7,92,29.53,2.0,ENE,3.5,-,N/A,Snow,Light Snow,60,2013-02-27 00:33:00
7:54 PM,32.7,30.7,92,29.52,2.0,ENE,3.5,-,N/A,Snow,Light Snow,60,2013-02-27 00:54:00
8:13 PM,32.7,30.7,92,29.52,3.0,ENE,3.5,-,N/A,Snow,Light Snow,60,2013-02-27 01:13:00
8:33 PM,32.7,30.7,92,29.51,2.0,NE,4.6,-,N/A,Snow,Light Snow,50,2013-02-27 01:33:00
8:54 PM,32.7,30.9,93,29.51,3.0,ENE,4.6,-,N/A,Snow,Light Snow,60,2013-02-27 01:54:00
9:13 PM,32.7,30.9,93,29.50,3.0,ENE,3.5,-,N/A,Snow,Light Snow,60,2013-02-27 02:13:00
9:33 PM,32.7,30.9,93,29.50,3.0,NE,3.5,-,N/A,Snow,Light Snow,50,2013-02-27 02:33:00
9:54 PM,32.7,30.9,93,29.49,2.5,ENE,3.5,-,N/A,Snow,Light Snow,60,2013-02-27 02:54:00
10:13 PM,32.7,30.9,93,29.49,4.0,ENE,3.5,-,N/A,Snow,Light Snow,70,2013-02-27 03:13:00
10:34 PM,32.7,30.9,93,29.48,2.5,Calm,Calm,-,N/A,Snow,Light Snow,0,2013-02-27 03:34:00
10:54 PM,32.7,30.9,93,29.47,4.0,Calm,Calm,-,N/A,Snow,Light Snow,0,2013-02-27 03:54:00
11:13 PM,32.7,30.9,93,29.46,5.0,Calm,Calm,-,N/A,,Overcast,0,2013-02-27 04:13:00
11:54 PM,32.7,30.9,93,29.45,7.0,NE,3.5,-,N/A,,Overcast,50,2013-02-27 04:54:00